| time (UTC) | temp F | wind direction | speed knots | gust knots | rain 1hr in | rain 24hr in | rain mn in | humidity % | barometer mb |
| 20260905191245 | 76 | 38 | 3.5 | 4.3 | 0.00 | 0.01 | 0.01 | 74 | 1013.7 |
| 20260905190743 | 77 | 45 | 3.5 | 7.0 | 0.00 | 0.01 | 0.01 | 73 | 1013.8 |
| 20260905190243 | 77 | 43 | 4.3 | 7.0 | 0.00 | 0.01 | 0.01 | 72 | 1013.9 |
| 20260905185742 | 77 | 59 | 1.7 | 2.6 | 0.00 | 0.01 | 0.01 | 72 | 1013.8 |
| 20260905185237 | 77 | 3 | 2.6 | 3.5 | 0.00 | 0.01 | 0.01 | 73 | 1014.0 |
| 20260905184731 | 77 | 47 | 6.1 | 6.1 | 0.00 | 0.01 | 0.01 | 73 | 1014.0 |
| 20260905184230 | 77 | 9 | 7.8 | 8.7 | 0.00 | 0.01 | 0.01 | 72 | 1014.0 |
| 20260905183729 | 77 | 8 | 7.0 | 9.6 | 0.00 | 0.01 | 0.01 | 72 | 1014.1 |
| 20260905183225 | 77 | 33 | 4.3 | 9.6 | 0.00 | 0.01 | 0.01 | 75 | 1014.1 |
| 20260905182725 | 77 | 74 | 0.9 | 3.5 | 0.00 | 0.01 | 0.01 | 74 | 1013.9 |
| 20260905182224 | 77 | 61 | 2.6 | 4.3 | 0.00 | 0.01 | 0.01 | 73 | 1013.9 |
| 20260905181720 | 77 | 34 | 3.5 | 3.5 | 0.00 | 0.01 | 0.01 | 75 | 1014.0 |
| 20260905181218 | 76 | 67 | 1.7 | 4.3 | 0.00 | 0.01 | 0.01 | 76 | 1014.0 |
| 20260905180713 | 75 | 6 | 7.0 | 8.7 | 0.00 | 0.01 | 0.01 | 77 | 1014.0 |
| 20260905180209 | 76 | 359 | 5.2 | 8.7 | 0.00 | 0.01 | 0.01 | 77 | 1014.3 |
| 20260905175708 | 76 | 357 | 9.6 | 9.6 | 0.00 | 0.01 | 0.01 | 78 | 1014.2 |
| 20260905175203 | 76 | 35 | 4.3 | 7.0 | 0.00 | 0.01 | 0.01 | 78 | 1014.2 |
| 20260905174658 | 76 | 5 | 6.1 | 7.0 | 0.00 | 0.01 | 0.01 | 75 | 1014.1 |
| 20260905174154 | 75 | 355 | 3.5 | 6.1 | 0.00 | 0.01 | 0.01 | 79 | 1014.3 |
| 20260905173650 | 75 | 59 | 6.1 | 8.7 | 0.00 | 0.01 | 0.01 | 78 | 1014.4 |
| 20260905173145 | 75 | 26 | 6.1 | 9.6 | 0.00 | 0.01 | 0.01 | 79 | 1014.2 |
| 20260905172645 | 75 | 30 | 5.2 | 6.1 | 0.00 | 0.01 | 0.01 | 79 | 1014.5 |
| 20260905172139 | 75 | 42 | 1.7 | 3.5 | 0.00 | 0.01 | 0.01 | 80 | 1014.3 |
| 20260905171635 | 75 | 33 | 2.6 | 6.1 | 0.00 | 0.01 | 0.01 | 81 | 1014.4 |
| 20260905171131 | 75 | 46 | 2.6 | 4.3 | 0.00 | 0.01 | 0.01 | 80 | 1014.4 |
| 20260905170627 | 75 | 81 | 1.7 | 7.0 | 0.00 | 0.01 | 0.01 | 81 | 1014.3 |
| 20260905170123 | 76 | 45 | 5.2 | 7.0 | 0.00 | 0.01 | 0.01 | 79 | 1014.6 |
| 20260905165617 | 75 | 41 | 0.9 | 3.5 | 0.00 | 0.01 | 0.01 | 80 | 1014.3 |
| 20260905165112 | 75 | 52 | 4.3 | 6.1 | 0.00 | 0.01 | 0.01 | 82 | 1014.4 |
| 20260905164607 | 75 | 34 | 4.3 | 7.0 | 0.00 | 0.01 | 0.01 | 80 | 1014.5 |
| 20260905164101 | 75 | 40 | 2.6 | 3.5 | 0.00 | 0.01 | 0.01 | 79 | 1014.6 |
| 20260905163552 | 75 | 24 | 2.6 | 4.3 | 0.00 | 0.01 | 0.01 | 79 | 1014.5 |
| 20260905163048 | 75 | 47 | 1.7 | 3.5 | 0.00 | 0.01 | 0.01 | 81 | 1014.6 |
| 20260905162544 | 75 | 19 | 1.7 | 2.6 | 0.00 | 0.01 | 0.01 | 81 | 1014.6 |
| 20260905162043 | 75 | 11 | 2.6 | 4.3 | 0.00 | 0.01 | 0.01 | 80 | 1014.6 |
| 20260905161543 | 75 | 4 | 6.1 | 7.0 | 0.00 | 0.01 | 0.01 | 79 | 1014.6 |
| 20260905161041 | 75 | 1 | 4.3 | 6.1 | 0.00 | 0.01 | 0.01 | 81 | 1014.6 |
| 20260905160539 | 75 | 23 | 2.6 | 4.3 | 0.00 | 0.01 | 0.01 | 80 | 1014.6 |
| 20260905160034 | 75 | 89 | 1.7 | 6.1 | 0.00 | 0.01 | 0.01 | 80 | 1014.7 |
| 20260905155534 | 75 | 95 | 2.6 | 3.5 | 0.00 | 0.01 | 0.01 | 80 | 1014.8 |
| 20260905155033 | 75 | 37 | 2.6 | 4.3 | 0.00 | 0.01 | 0.01 | 80 | 1014.8 |
| 20260905154528 | 75 | 351 | 3.5 | 4.3 | 0.00 | 0.01 | 0.01 | 82 | 1014.6 |
| 20260905154024 | 75 | 8 | 3.5 | 3.5 | 0.00 | 0.01 | 0.01 | 83 | 1014.7 |
| 20260905153520 | 75 | 31 | 4.3 | 4.3 | 0.00 | 0.01 | 0.01 | 82 | 1014.8 |
| 20260905153019 | 75 | 6 | 1.7 | 2.6 | 0.00 | 0.01 | 0.01 | 82 | 1014.9 |
| 20260905152519 | 75 | 59 | 0.9 | 2.6 | 0.00 | 0.01 | 0.01 | 82 | 1014.7 |
| 20260905152015 | 75 | 0 | 0.9 | 2.6 | 0.00 | 0.01 | 0.01 | 84 | 1014.5 |
| 20260905151510 | 75 | 34 | 1.7 | 2.6 | 0.00 | 0.01 | 0.01 | 83 | 1014.4 |
| 20260905151005 | 75 | 34 | 1.7 | 0.9 | 0.00 | 0.01 | 0.01 | 84 | 1014.5 |
| 20260905150500 | 75 | 34 | 0.0 | 0.9 | 0.00 | 0.01 | 0.01 | 83 | 1014.3 |
| 20260905145956 | 75 | 33 | 0.0 | 0.0 | 0.00 | 0.01 | 0.01 | 83 | 1014.5 |
| 20260905145451 | 75 | 12 | 0.0 | 0.0 | 0.00 | 0.01 | 0.01 | 84 | 1014.3 |
| 20260905144950 | 74 | 12 | 0.0 | 0.9 | 0.00 | 0.01 | 0.01 | 84 | 1014.3 |
| 20260905144446 | 74 | 11 | 0.0 | 0.9 | 0.00 | 0.01 | 0.01 | 86 | 1014.3 |
| 20260905143945 | 74 | 51 | 0.9 | 0.9 | 0.00 | 0.01 | 0.01 | 86 | 1014.1 |
| 20260905143444 | 74 | 69 | 1.7 | 0.9 | 0.00 | 0.01 | 0.01 | 87 | 1014.1 |
| 20260905142939 | 73 | 40 | 0.9 | 2.6 | 0.00 | 0.01 | 0.01 | 89 | 1014.1 |
| 20260905142438 | 73 | 22 | 2.6 | 3.5 | 0.00 | 0.01 | 0.01 | 89 | 1014.3 |
| 20260905141933 | 73 | 37 | 0.9 | 0.9 | 0.00 | 0.01 | 0.01 | 91 | 1014.1 |
| 20260905141428 | 72 | 37 | 1.7 | 2.6 | 0.00 | 0.01 | 0.01 | 93 | 1014.1 |
| 20260905140924 | 71 | 33 | 2.6 | 2.6 | 0.00 | 0.01 | 0.01 | 97 | 1014.1 |
| 20260905140420 | 71 | 69 | 1.7 | 2.6 | 0.00 | 0.01 | 0.01 | 99 | 1014.0 |
| 20260905135918 | 70 | 27 | 2.6 | 2.6 | 0.00 | 0.01 | 0.01 | 99 | 1014.0 |
| 20260905135414 | 70 | 23 | 0.9 | 2.6 | 0.00 | 0.01 | 0.01 | 99 | 1014.1 |
| 20260905134909 | 70 | 13 | 2.6 | 4.3 | 0.00 | 0.01 | 0.01 | 99 | 1014.1 |
| 20260905134408 | 70 | 23 | 2.6 | 3.5 | 0.00 | 0.01 | 0.01 | 99 | 1014.0 |
| 20260905133903 | 69 | 22 | 2.6 | 2.6 | 0.00 | 0.01 | 0.01 | 99 | 1014.1 |
| 20260905133358 | 69 | 23 | 0.9 | 0.9 | 0.00 | 0.01 | 0.01 | 99 | 1014.3 |
| 20260905132857 | 69 | 22 | 0.9 | 0.9 | 0.00 | 0.01 | 0.01 | 99 | 1014.4 |
| 20260905132352 | 69 | 22 | 0.0 | 0.0 | 0.00 | 0.01 | 0.01 | 99 | 1014.2 |
| 20260905131846 | 69 | 22 | 0.0 | 0.0 | 0.00 | 0.01 | 0.01 | 99 | 1014.4 |
| 20260905131342 | 69 | 22 | 0.9 | 0.9 | 0.00 | 0.01 | 0.01 | 99 | 1014.6 |
| 20260905130837 | 69 | 23 | 0.0 | 0.0 | 0.00 | 0.01 | 0.01 | 99 | 1014.8 |
| 20260905130336 | 69 | 22 | 0.0 | 0.0 | 0.00 | 0.01 | 0.01 | 99 | 1014.5 |
| 20260905125831 | 69 | 22 | 0.0 | 0.0 | 0.00 | 0.01 | 0.01 | 99 | 1014.6 |
| 20260905125326 | 69 | 23 | 0.0 | 0.0 | 0.00 | 0.01 | 0.01 | 99 | 1014.5 |
| 20260905124822 | 69 | 23 | 0.9 | 0.9 | 0.00 | 0.01 | 0.01 | 99 | 1014.6 |
| 20260905124318 | 69 | 21 | 1.7 | 0.9 | 0.00 | 0.01 | 0.01 | 99 | 1014.6 |
| 20260905123813 | 68 | 15 | 0.0 | 0.0 | 0.00 | 0.01 | 0.01 | 99 | 1014.6 |
| 20260905123310 | 68 | 15 | 0.0 | 0.0 | 0.00 | 0.01 | 0.01 | 99 | 1014.5 |
| 20260905122809 | 68 | 15 | 0.0 | 0.0 | 0.00 | 0.01 | 0.01 | 99 | 1014.6 |
| 20260905122309 | 68 | 15 | 0.0 | 0.0 | 0.00 | 0.01 | 0.01 | 99 | 1014.7 |
| 20260905121805 | 68 | 15 | 0.0 | 0.0 | 0.00 | 0.01 | 0.01 | 99 | 1014.6 |
| 20260905121301 | 68 | 15 | 0.0 | 0.9 | 0.00 | 0.01 | 0.01 | 99 | 1014.5 |
| 20260905120759 | 68 | 14 | 0.0 | 0.9 | 0.00 | 0.01 | 0.01 | 99 | 1014.5 |
| 20260905120300 | 68 | 14 | 0.0 | 0.0 | 0.00 | 0.01 | 0.01 | 99 | 1014.5 |
| 20260905115754 | 68 | 14 | 0.0 | 0.9 | 0.00 | 0.01 | 0.01 | 99 | 1014.5 |
| 20260905115249 | 68 | 15 | 0.0 | 0.0 | 0.00 | 0.01 | 0.01 | 99 | 1014.2 |
| 20260905114748 | 67 | 15 | 0.0 | 0.9 | 0.00 | 0.01 | 0.01 | 99 | 1014.4 |
| 20260905114247 | 67 | 343 | 0.0 | 0.0 | 0.00 | 0.01 | 0.01 | 99 | 1014.2 |
| 20260905113746 | 67 | 343 | 0.0 | 0.0 | 0.00 | 0.01 | 0.01 | 99 | 1014.3 |
| 20260905113243 | 67 | 343 | 0.0 | 0.9 | 0.00 | 0.01 | 0.01 | 99 | 1014.3 |
| 20260905112737 | 67 | 343 | 0.0 | 0.9 | 0.00 | 0.01 | 0.01 | 99 | 1014.0 |
| 20260905112232 | 67 | 343 | 0.0 | 0.0 | 0.00 | 0.01 | 0.01 | 99 | 1013.9 |
| 20260905111727 | 67 | 343 | 0.9 | 0.9 | 0.00 | 0.01 | 0.01 | 99 | 1014.1 |
| 20260905111221 | 67 | 342 | 0.0 | 0.9 | 0.00 | 0.01 | 0.01 | 99 | 1014.1 |
| 20260905110720 | 67 | 342 | 0.0 | 0.0 | 0.00 | 0.01 | 0.01 | 99 | 1014.2 |
| 20260905110215 | 67 | 341 | 0.9 | 0.9 | 0.00 | 0.01 | 0.01 | 99 | 1014.1 |
| 20260905105711 | 67 | 341 | 0.0 | 0.0 | 0.00 | 0.01 | 0.01 | 99 | 1014.0 |
| 20260905105209 | 67 | 341 | 0.0 | 0.0 | 0.00 | 0.01 | 0.01 | 99 | 1014.2 |
| 20260905104704 | 67 | 341 | 0.0 | 0.0 | 0.00 | 0.01 | 0.01 | 99 | 1014.2 |
| 20260905104200 | 67 | 341 | 0.0 | 0.0 | 0.05 | 0.01 | 0.01 | 99 | 1014.5 |
| 20260905103655 | 67 | 341 | 0.0 | 0.0 | 0.05 | 0.01 | 0.01 | 99 | 1014.5 |
| 20260905103151 | 67 | 339 | 0.9 | 0.9 | 0.00 | 0.00 | 0.00 | 99 | 1014.6 |
| 20260905102646 | 67 | 338 | 0.0 | 0.0 | 0.00 | 0.00 | 0.00 | 99 | 1014.7 |
| 20260905102143 | 67 | 338 | 0.0 | 0.0 | 0.00 | 0.00 | 0.00 | 99 | 1014.6 |
| 20260905101641 | 67 | 338 | 0.0 | 0.0 | 0.00 | 0.00 | 0.00 | 99 | 1014.7 |
| 20260905101140 | 67 | 338 | 0.0 | 0.0 | 0.00 | 0.00 | 0.00 | 99 | 1014.5 |
| 20260905100636 | 67 | 337 | 0.0 | 0.9 | 0.00 | 0.00 | 0.00 | 99 | 1014.5 |
| 20260905100131 | 67 | 30 | 0.9 | 0.9 | 0.00 | 0.00 | 0.00 | 99 | 1014.3 |
| 20260905095624 | 67 | 30 | 0.0 | 0.0 | 0.00 | 0.00 | 0.00 | 99 | 1014.1 |
| 20260905095120 | 67 | 30 | 0.9 | 0.9 | 0.00 | 0.00 | 0.00 | 99 | 1013.9 |
| 20260905094615 | 68 | 30 | 0.0 | 0.9 | 0.00 | 0.00 | 0.00 | 99 | 1014.0 |
| 20260905094114 | 68 | 30 | 0.0 | 0.0 | 0.00 | 0.00 | 0.00 | 99 | 1013.9 |
| 20260905093614 | 68 | 30 | 0.0 | 0.0 | 0.00 | 0.00 | 0.00 | 99 | 1013.9 |
| 20260905093111 | 68 | 30 | 0.0 | 0.0 | 0.00 | 0.00 | 0.00 | 99 | 1013.9 |
| 20260905092610 | 68 | 30 | 0.9 | 0.9 | 0.00 | 0.00 | 0.00 | 99 | 1013.7 |
| 20260905092107 | 67 | 30 | 0.0 | 0.0 | 0.00 | 0.00 | 0.00 | 99 | 1013.5 |
| 20260905091606 | 67 | 30 | 0.0 | 0.9 | 0.00 | 0.00 | 0.00 | 99 | 1013.4 |
| 20260905091100 | 67 | 30 | 0.0 | 0.0 | 0.00 | 0.00 | 0.00 | 99 | 1013.2 |
| 20260905090554 | 67 | 30 | 0.9 | 0.9 | 0.00 | 0.00 | 0.00 | 99 | 1013.5 |
| 20260905090050 | 67 | 30 | 0.0 | 0.0 | 0.00 | 0.00 | 0.00 | 99 | 1013.7 |
| 20260905085548 | 67 | 30 | 0.0 | 0.0 | 0.00 | 0.00 | 0.00 | 99 | 1013.8 |
| 20260905085044 | 67 | 30 | 0.0 | 0.0 | 0.00 | 0.00 | 0.00 | 99 | 1013.8 |
| 20260905084543 | 67 | 30 | 0.0 | 0.0 | 0.00 | 0.00 | 0.00 | 99 | 1013.4 |
| 20260905084039 | 67 | 30 | 0.0 | 0.0 | 0.00 | 0.00 | 0.00 | 99 | 1013.5 |
| 20260905083533 | 66 | 30 | 0.0 | 0.9 | 0.00 | 0.00 | 0.00 | 99 | 1013.0 |
| 20260905083030 | 66 | 30 | 0.0 | 0.0 | 0.00 | 0.00 | 0.00 | 99 | 1013.2 |
| 20260905082525 | 66 | 30 | 0.9 | 0.9 | 0.00 | 0.00 | 0.00 | 99 | 1013.0 |
| 20260905082021 | 66 | 30 | 0.0 | 0.0 | 0.00 | 0.00 | 0.00 | 99 | 1012.9 |
| 20260905081515 | 66 | 30 | 0.9 | 0.9 | 0.00 | 0.00 | 0.00 | 99 | 1012.9 |
| 20260905081015 | 65 | 30 | 0.0 | 0.0 | 0.00 | 0.00 | 0.00 | 99 | 1013.3 |
| 20260905080509 | 65 | 30 | 0.0 | 0.0 | 0.00 | 0.00 | 0.00 | 99 | 1013.4 |
| 20260905080004 | 65 | 30 | 0.0 | 0.0 | 0.00 | 0.00 | 0.00 | 99 | 1013.4 |
| 20260905075457 | 65 | 30 | 0.0 | 0.0 | 0.00 | 0.00 | 0.00 | 99 | 1013.3 |
| 20260905074955 | 65 | 30 | 0.0 | 0.0 | 0.00 | 0.00 | 0.00 | 99 | 1013.3 |
| 20260905074452 | 66 | 30 | 0.0 | 0.0 | 0.00 | 0.00 | 0.00 | 99 | 1013.2 |
| 20260905073947 | 66 | 30 | 0.0 | 0.0 | 0.00 | 0.00 | 0.00 | 99 | 1013.4 |
| 20260905073442 | 66 | 30 | 0.0 | 0.0 | 0.00 | 0.00 | 0.00 | 99 | 1013.4 |
| 20260905072938 | 66 | 30 | 0.0 | 0.0 | 0.00 | 0.00 | 0.00 | 99 | 1013.2 |
| 20260905072432 | 66 | 30 | 0.0 | 0.0 | 0.00 | 0.00 | 0.00 | 99 | 1013.3 |
| 20260905071928 | 66 | 30 | 0.0 | 0.0 | 0.00 | 0.00 | 0.00 | 99 | 1013.5 |
| 20260905071426 | 66 | 30 | 0.0 | 0.0 | 0.00 | 0.00 | 0.00 | 99 | 1013.5 |
| 20260905070924 | 66 | 30 | 0.0 | 0.0 | 0.00 | 0.00 | 0.00 | 99 | 1013.5 |
| 20260905070421 | 66 | 30 | 0.0 | 0.0 | 0.00 | 0.00 | 0.00 | 99 | 1013.2 |
| 20260905065920 | 66 | 30 | 0.0 | 0.0 | 0.00 | 0.00 | 0.00 | 99 | 1013.4 |
| 20260905065418 | 66 | 30 | 0.0 | 0.0 | 0.00 | 0.00 | 0.00 | 99 | 1013.7 |
| 20260905064914 | 66 | 30 | 0.0 | 0.0 | 0.00 | 0.00 | 0.00 | 99 | 1013.7 |
| 20260905064409 | 67 | 30 | 0.0 | 0.0 | 0.00 | 0.00 | 0.00 | 99 | 1013.7 |
| 20260905063908 | 67 | 30 | 0.0 | 0.0 | 0.00 | 0.00 | 0.00 | 99 | 1013.9 |
| 20260905063404 | 67 | 30 | 0.0 | 0.0 | 0.00 | 0.00 | 0.00 | 99 | 1014.0 |
| 20260905062900 | 67 | 30 | 0.0 | 0.9 | 0.00 | 0.00 | 0.00 | 99 | 1014.0 |
| 20260905062354 | 67 | 30 | 0.9 | 0.9 | 0.00 | 0.00 | 0.00 | 99 | 1014.1 |
| 20260905061849 | 67 | 30 | 0.0 | 0.0 | 0.00 | 0.00 | 0.00 | 99 | 1014.1 |
| 20260905061343 | 67 | 30 | 0.0 | 0.0 | 0.00 | 0.00 | 0.00 | 99 | 1014.1 |
| 20260905060838 | 67 | 30 | 0.0 | 0.0 | 0.00 | 0.00 | 0.00 | 99 | 1014.1 |
| 20260905060335 | 67 | 30 | 0.0 | 0.9 | 0.00 | 0.00 | 0.00 | 99 | 1014.3 |
| 20260905055833 | 67 | 30 | 0.0 | 0.0 | 0.00 | 0.00 | 0.00 | 99 | 1014.3 |
| 20260905055328 | 67 | 30 | 0.0 | 0.0 | 0.00 | 0.00 | 0.00 | 99 | 1014.4 |
| 20260905054828 | 67 | 30 | 0.0 | 0.0 | 0.00 | 0.00 | 0.00 | 99 | 1014.7 |
| 20260905054325 | 67 | 30 | 0.0 | 0.0 | 0.00 | 0.00 | 0.00 | 99 | 1014.7 |
| 20260905053824 | 67 | 30 | 0.0 | 0.0 | 0.00 | 0.00 | 0.00 | 99 | 1014.5 |
| 20260905053319 | 67 | 30 | 0.0 | 0.0 | 0.00 | 0.00 | 0.00 | 99 | 1014.6 |
| 20260905052814 | 67 | 30 | 0.0 | 0.0 | 0.00 | 0.00 | 0.00 | 99 | 1014.7 |
| 20260905052313 | 67 | 30 | 0.9 | 0.9 | 0.00 | 0.00 | 0.00 | 99 | 1014.8 |
| 20260905051808 | 67 | 30 | 0.0 | 0.0 | 0.00 | 0.00 | 0.00 | 99 | 1014.7 |
| 20260905051304 | 67 | 30 | 0.0 | 0.0 | 0.00 | 0.00 | 0.00 | 99 | 1014.7 |
| 20260905050801 | 67 | 30 | 0.0 | 0.0 | 0.00 | 0.00 | 0.00 | 99 | 1014.5 |
| 20260905050256 | 68 | 30 | 0.0 | 0.0 | 0.00 | 0.00 | 0.00 | 99 | 1014.5 |
| 20260905045751 | 68 | 30 | 0.0 | 0.0 | 0.00 | 0.00 | 0.00 | 99 | 1014.7 |
| 20260905045247 | 67 | 30 | 0.0 | 0.0 | 0.00 | 0.00 | 0.00 | 99 | 1014.6 |
| 20260905044742 | 67 | 30 | 0.0 | 0.0 | 0.00 | 0.00 | 0.00 | 99 | 1014.7 |
| 20260905044237 | 67 | 30 | 0.0 | 0.0 | 0.00 | 0.00 | 0.00 | 99 | 1014.6 |
| 20260905043736 | 67 | 30 | 0.0 | 0.0 | 0.00 | 0.00 | 0.00 | 99 | 1014.6 |
| 20260905043235 | 67 | 30 | 0.0 | 0.0 | 0.00 | 0.00 | 0.00 | 99 | 1014.8 |
| 20260905042731 | 67 | 30 | 0.0 | 0.0 | 0.00 | 0.00 | 0.00 | 99 | 1014.8 |
| 20260905042229 | 67 | 30 | 0.0 | 0.0 | 0.00 | 0.00 | 0.00 | 99 | 1014.7 |
| 20260905041726 | 67 | 30 | 0.0 | 0.0 | 0.00 | 0.00 | 0.00 | 99 | 1014.6 |
| 20260905041221 | 67 | 30 | 0.0 | 0.0 | 0.00 | 0.00 | 0.00 | 99 | 1014.6 |
| 20260905040716 | 67 | 30 | 0.0 | 0.0 | 0.00 | 0.00 | 0.00 | 99 | 1014.7 |
| 20260905040214 | 67 | 30 | 0.0 | 0.0 | 0.00 | 0.00 | 0.00 | 99 | 1014.7 |
| 20260905035709 | 67 | 30 | 0.0 | 0.0 | 0.00 | 0.09 | 0.09 | 99 | 1014.6 |
| 20260905035206 | 67 | 30 | 0.0 | 0.0 | 0.00 | 0.09 | 0.09 | 99 | 1014.8 |
| 20260905034702 | 67 | 30 | 0.9 | 0.0 | 0.00 | 0.09 | 0.09 | 98 | 1014.7 |
| 20260905034201 | 68 | 30 | 0.0 | 0.0 | 0.00 | 0.09 | 0.09 | 98 | 1014.7 |
| 20260905033700 | 68 | 30 | 0.0 | 0.0 | 0.00 | 0.09 | 0.09 | 98 | 1014.6 |
| 20260905033156 | 68 | 30 | 0.0 | 0.0 | 0.00 | 0.09 | 0.09 | 98 | 1014.6 |
| 20260905032655 | 68 | 30 | 0.0 | 0.0 | 0.00 | 0.09 | 0.09 | 98 | 1014.4 |
| 20260905032156 | 68 | 30 | 0.0 | 0.0 | 0.00 | 0.09 | 0.09 | 98 | 1014.7 |
| 20260905031652 | 68 | 30 | 0.0 | 0.0 | 0.00 | 0.09 | 0.09 | 98 | 1014.7 |
| 20260905031147 | 68 | 30 | 0.0 | 0.0 | 0.00 | 0.09 | 0.09 | 98 | 1014.6 |
| 20260905030642 | 68 | 30 | 0.0 | 0.0 | 0.00 | 0.09 | 0.09 | 98 | 1014.7 |
| 20260905030137 | 68 | 30 | 0.0 | 0.0 | 0.00 | 0.09 | 0.09 | 98 | 1014.6 |
| 20260905025632 | 68 | 30 | 0.0 | 0.0 | 0.00 | 0.09 | 0.09 | 98 | 1014.7 |
| 20260905025128 | 68 | 30 | 0.0 | 0.0 | 0.00 | 0.09 | 0.09 | 98 | 1014.8 |
| 20260905024623 | 68 | 30 | 0.0 | 0.0 | 0.00 | 0.09 | 0.09 | 98 | 1014.7 |
| 20260905024119 | 68 | 30 | 0.0 | 0.0 | 0.00 | 0.09 | 0.09 | 98 | 1014.8 |
| 20260905023614 | 69 | 30 | 0.0 | 0.0 | 0.00 | 0.09 | 0.09 | 98 | 1014.8 |
| 20260905023108 | 69 | 30 | 0.0 | 0.0 | 0.00 | 0.09 | 0.09 | 98 | 1014.9 |
| 20260905022607 | 69 | 30 | 0.0 | 0.0 | 0.00 | 0.09 | 0.09 | 98 | 1014.8 |
| 20260905022103 | 69 | 30 | 0.0 | 0.0 | 0.00 | 0.09 | 0.09 | 98 | 1014.9 |
| 20260905021602 | 69 | 30 | 0.0 | 0.0 | 0.00 | 0.09 | 0.09 | 98 | 1014.9 |
| 20260905021058 | 69 | 30 | 0.0 | 0.0 | 0.00 | 0.09 | 0.09 | 98 | 1015.0 |
| 20260905020557 | 69 | 30 | 0.0 | 0.0 | 0.00 | 0.09 | 0.09 | 98 | 1015.0 |
| 20260905020053 | 69 | 30 | 0.0 | 0.0 | 0.00 | 0.09 | 0.09 | 98 | 1015.0 |
| 20260905015550 | 69 | 30 | 0.0 | 0.0 | 0.00 | 0.09 | 0.09 | 98 | 1015.0 |
| 20260905015045 | 69 | 30 | 0.0 | 0.0 | 0.00 | 0.09 | 0.09 | 97 | 1014.9 |
| 20260905014540 | 69 | 30 | 0.0 | 0.0 | 0.00 | 0.09 | 0.09 | 97 | 1014.8 |
| 20260905014036 | 70 | 30 | 0.0 | 0.0 | 0.00 | 0.09 | 0.09 | 97 | 1014.8 |
| 20260905013532 | 70 | 30 | 0.0 | 0.0 | 0.00 | 0.09 | 0.09 | 97 | 1014.8 |
| 20260905013027 | 70 | 30 | 0.0 | 0.0 | 0.00 | 0.09 | 0.09 | 97 | 1014.8 |
| 20260905012521 | 70 | 30 | 0.0 | 0.0 | 0.00 | 0.09 | 0.09 | 97 | 1014.6 |
| 20260905012019 | 70 | 30 | 0.0 | 0.0 | 0.00 | 0.09 | 0.09 | 97 | 1014.7 |
| 20260905011515 | 70 | 30 | 0.0 | 0.0 | 0.00 | 0.09 | 0.09 | 97 | 1014.8 |
| 20260905011010 | 70 | 30 | 0.0 | 0.0 | 0.00 | 0.09 | 0.09 | 97 | 1014.7 |
| 20260905010509 | 71 | 30 | 0.0 | 0.0 | 0.00 | 0.09 | 0.09 | 96 | 1014.8 |
| 20260905010006 | 71 | 30 | 0.0 | 0.0 | 0.00 | 0.09 | 0.09 | 96 | 1014.8 |
| 20260905005501 | 71 | 30 | 0.9 | 0.9 | 0.00 | 0.09 | 0.09 | 96 | 1014.8 |
| 20260905004956 | 71 | 30 | 0.0 | 0.0 | 0.00 | 0.09 | 0.09 | 96 | 1014.8 |
| 20260905004451 | 71 | 30 | 0.0 | 0.0 | 0.00 | 0.09 | 0.09 | 96 | 1014.8 |
| 20260905003946 | 71 | 30 | 0.0 | 0.0 | 0.00 | 0.09 | 0.09 | 95 | 1014.6 |
| 20260905003442 | 71 | 30 | 0.0 | 0.0 | 0.00 | 0.09 | 0.09 | 95 | 1014.7 |
| 20260905002937 | 72 | 30 | 0.0 | 0.9 | 0.00 | 0.09 | 0.09 | 95 | 1014.5 |
| 20260905002437 | 72 | 30 | 0.0 | 0.0 | 0.00 | 0.09 | 0.09 | 94 | 1014.6 |
| 20260905001931 | 72 | 30 | 0.9 | 0.9 | 0.00 | 0.09 | 0.09 | 94 | 1014.4 |
| 20260905001427 | 72 | 30 | 0.0 | 0.0 | 0.00 | 0.09 | 0.09 | 93 | 1014.5 |
| 20260905000921 | 73 | 30 | 0.9 | 0.9 | 0.00 | 0.09 | 0.09 | 93 | 1014.4 |
| 20260905000417 | 73 | 30 | 0.0 | 0.0 | 0.00 | 0.09 | 0.09 | 93 | 1014.5 |
| 20260904235912 | 73 | 30 | 1.7 | 2.6 | 0.00 | 0.09 | 0.09 | 92 | 1014.7 |
| 20260904235408 | 73 | 30 | 0.0 | 0.0 | 0.00 | 0.09 | 0.09 | 91 | 1014.6 |
| 20260904234902 | 74 | 30 | 0.9 | 0.9 | 0.00 | 0.09 | 0.09 | 91 | 1014.6 |
| 20260904234356 | 74 | 105 | 0.0 | 0.0 | 0.00 | 0.09 | 0.09 | 90 | 1014.3 |
| 20260904233852 | 74 | 273 | 0.0 | 0.0 | 0.00 | 0.09 | 0.09 | 89 | 1014.5 |
| 20260904233348 | 75 | 273 | 0.9 | 0.9 | 0.00 | 0.09 | 0.09 | 88 | 1014.8 |
| 20260904232844 | 75 | 273 | 0.0 | 0.0 | 0.00 | 0.09 | 0.09 | 88 | 1014.8 |
| 20260904232341 | 75 | 273 | 0.0 | 0.0 | 0.00 | 0.09 | 0.09 | 88 | 1015.1 |
| 20260904231836 | 75 | 273 | 0.0 | 0.0 | 0.00 | 0.09 | 0.09 | 88 | 1015.2 |
| 20260904231331 | 75 | 273 | 0.0 | 0.9 | 0.00 | 0.09 | 0.09 | 87 | 1015.2 |
| 20260904230826 | 76 | 273 | 0.9 | 0.9 | 0.00 | 0.09 | 0.09 | 85 | 1015.2 |
| 20260904230325 | 76 | 273 | 0.0 | 0.0 | 0.00 | 0.09 | 0.09 | 84 | 1015.0 |
| 20260904225820 | 76 | 273 | 0.0 | 0.0 | 0.00 | 0.09 | 0.09 | 85 | 1015.0 |
| 20260904225318 | 76 | 273 | 0.0 | 0.0 | 0.00 | 0.09 | 0.09 | 85 | 1014.7 |
| 20260904224817 | 76 | 273 | 0.0 | 0.9 | 0.00 | 0.09 | 0.09 | 85 | 1014.7 |
| 20260904224314 | 77 | 273 | 0.0 | 0.9 | 0.00 | 0.09 | 0.09 | 85 | 1014.6 |
| 20260904223813 | 77 | 273 | 0.0 | 0.9 | 0.00 | 0.09 | 0.09 | 83 | 1014.7 |
| 20260904223307 | 77 | 273 | 0.0 | 0.0 | 0.00 | 0.09 | 0.09 | 82 | 1014.6 |
| 20260904222804 | 77 | 273 | 0.0 | 0.0 | 0.00 | 0.09 | 0.09 | 82 | 1014.5 |
| 20260904222259 | 77 | 272 | 0.0 | 0.0 | 0.00 | 0.09 | 0.09 | 81 | 1014.4 |
| 20260904221758 | 77 | 320 | 0.0 | 0.0 | 0.00 | 0.09 | 0.09 | 82 | 1014.4 |
| 20260904221253 | 78 | 320 | 0.0 | 0.9 | 0.00 | 0.09 | 0.09 | 81 | 1014.3 |
| 20260904220749 | 78 | 320 | 0.0 | 0.0 | 0.00 | 0.09 | 0.09 | 81 | 1014.1 |
| 20260904220247 | 77 | 320 | 0.0 | 0.9 | 0.00 | 0.09 | 0.09 | 79 | 1013.9 |
| 20260904215743 | 78 | 104 | 0.9 | 0.9 | 0.00 | 0.09 | 0.09 | 79 | 1013.9 |
| 20260904215238 | 77 | 105 | 0.0 | 0.9 | 0.00 | 0.09 | 0.09 | 79 | 1013.9 |
| 20260904214734 | 77 | 269 | 0.0 | 0.9 | 0.00 | 0.09 | 0.09 | 79 | 1013.9 |
| 20260904214229 | 77 | 66 | 0.0 | 0.9 | 0.00 | 0.09 | 0.09 | 79 | 1013.8 |
| 20260904213727 | 77 | 135 | 1.7 | 0.9 | 0.00 | 0.09 | 0.09 | 79 | 1013.7 |
| 20260904213224 | 77 | 270 | 2.6 | 4.3 | 0.00 | 0.09 | 0.09 | 79 | 1013.8 |
| 20260904212719 | 77 | 248 | 0.9 | 3.5 | 0.00 | 0.09 | 0.09 | 80 | 1013.7 |
| 20260904212214 | 77 | 160 | 0.0 | 0.9 | 0.00 | 0.09 | 0.09 | 79 | 1013.5 |
| 20260904211714 | 77 | 229 | 0.9 | 0.9 | 0.00 | 0.09 | 0.09 | 79 | 1013.5 |
| 20260904211208 | 78 | 310 | 2.6 | 2.6 | 0.00 | 0.09 | 0.09 | 79 | 1013.4 |
| 20260904210703 | 78 | 223 | 0.0 | 3.5 | 0.00 | 0.09 | 0.09 | 77 | 1013.2 |
| 20260904210158 | 78 | 288 | 0.0 | 0.9 | 0.00 | 0.09 | 0.09 | 79 | 1013.3 |
| 20260904205654 | 78 | 145 | 0.0 | 0.9 | 0.00 | 0.09 | 0.09 | 79 | 1013.3 |
| 20260904205150 | 78 | 137 | 1.7 | 2.6 | 0.00 | 0.09 | 0.09 | 78 | 1012.9 |
| 20260904204646 | 78 | 193 | 0.9 | 2.6 | 0.00 | 0.09 | 0.09 | 78 | 1013.3 |
| 20260904204142 | 78 | 226 | 2.6 | 3.5 | 0.00 | 0.09 | 0.09 | 75 | 1013.3 |
| 20260904203637 | 78 | 131 | 0.0 | 2.6 | 0.00 | 0.09 | 0.09 | 74 | 1013.3 |
| 20260904203134 | 79 | 256 | 1.7 | 2.6 | 0.00 | 0.09 | 0.09 | 72 | 1013.8 |
| 20260904202630 | 80 | 158 | 4.3 | 4.3 | 0.00 | 0.09 | 0.09 | 72 | 1013.8 |
| 20260904202126 | 79 | 174 | 2.6 | 3.5 | 0.00 | 0.09 | 0.09 | 74 | 1013.9 |
| 20260904201626 | 80 | 63 | 1.7 | 2.6 | 0.00 | 0.09 | 0.09 | 74 | 1014.1 |
| 20260904201121 | 79 | 51 | 0.9 | 2.6 | 0.00 | 0.09 | 0.09 | 73 | 1014.1 |
| 20260904200615 | 80 | 87 | 0.9 | 2.6 | 0.00 | 0.09 | 0.09 | 73 | 1014.3 |
| 20260904200110 | 79 | 15 | 1.7 | 3.5 | 0.00 | 0.09 | 0.09 | 73 | 1014.3 |
| 20260904195609 | 79 | 345 | 0.9 | 2.6 | 0.00 | 0.09 | 0.09 | 74 | 1014.6 |
| 20260904195107 | 80 | 345 | 1.7 | 2.6 | 0.00 | 0.09 | 0.09 | 72 | 1014.6 |
| 20260904194602 | 79 | 300 | 1.7 | 3.5 | 0.00 | 0.09 | 0.09 | 75 | 1014.7 |
| 20260904194057 | 78 | 339 | 2.6 | 3.5 | 0.00 | 0.09 | 0.09 | 77 | 1014.8 |
| 20260904193551 | 77 | 252 | 2.6 | 2.6 | 0.00 | 0.09 | 0.09 | 76 | 1015.2 |
| 20260904193048 | 77 | 4 | 2.6 | 4.3 | 0.00 | 0.09 | 0.09 | 78 | 1015.1 |
| 20260904192548 | 78 | 349 | 0.9 | 3.5 | 0.00 | 0.09 | 0.09 | 78 | 1015.0 |
| 20260904192043 | 78 | 342 | 2.6 | 3.5 | 0.00 | 0.09 | 0.09 | 80 | 1014.9 |
| 20260904191540 | 78 | 265 | 1.7 | 3.5 | 0.00 | 0.09 | 0.09 | 78 | 1014.7 |